Flag for US Virgin Islands Weather past 2 weeks in Christiansted, US Virgin Islands

77 °F

Broken clouds.

Feels Like: 78 °F
Forecast: 76 / 82 °F
Wind: 14 mph from Southeast

Location: Christiansted / Henry E. Rohlsen Airport - Saint Croix

Current Time: Nov 28, 2015 at 1:24:11 PM

Latest Report: Nov 28, 2015 at 12:53 PM

Visibility: 6 mi

Pressure: 29.93 "Hg

Humidity: 94%

Dew point: 75 °F

Location of ChristianstedLocation

Historic Weather in Christiansted — Graph


Christiansted temperature yesterday

Maximum temperature yesterday: 87 °F (at 12:53 PM)
Minimum temperature yesterday: 75 °F (at 4:53 AM)
Average temperature yesterday: 80 °F

Past Weeks' High & Low Weather Summary

High89 °F (Nov 15, 11:53 AM)97% (Nov 16, 10:56 PM)30.07 "Hg (Nov 16, 10:56 PM)
Low70 °F (Nov 21, 4:53 AM)48% (Nov 20, 12:53 PM)29.85 "Hg (Nov 20, 2:53 PM)
Average79 °F79%29.94 "Hg
* Reported Nov 13 11:53 AM — Nov 28 11:53 AM, Christiansted, Weather by CustomWeather, © 2015

Note: Actual official high and low records may vary slightly from our data, if they occured in-between our weather recording intervals... More about our weather records


Christiansted weather history for previous 24 hours

Time TempWeatherWind HumidityBarometerVisibility
11:53 AM
Sat, Nov 28
84 °FBroken clouds.9 mph80%29.93 "Hg10 mi
10:53 AM81 °FScattered clouds.9 mph85%29.96 "Hg10 mi
10:11 AM78 °FLight rain. Fog.7 mph90%29.97 "Hg6 mi
10:00 AM78 °FLight rain. Mostly cloudy.12 mph90%29.97 "Hg10 mi
9:39 AM77 °FRain. Fog.12 mph90%29.96 "Hg1 mi
8:53 AM80 °FScattered clouds.5 mph90%29.94 "Hg10 mi
8:35 AM79 °FPartly sunny.3 mph94%29.94 "Hg10 mi
7:53 AM78 °FScattered clouds.No wind93%29.92 "Hg10 mi
7:12 AM78 °FLight rain. Mostly cloudy.No wind93%29.91 "Hg9 mi
6:53 AM78 °FLight rain. Fog.5 mph90%29.90 "Hg4 mi
5:53 AM76 °FPassing clouds.6 mph94%29.89 "Hg10 mi
4:53 AM75 °FClear.No wind94%29.89 "Hg10 mi
3:53 AM76 °FPassing clouds.6 mph94%29.88 "Hg10 mi
2:53 AM76 °FPassing clouds.5 mph91%29.88 "Hg10 mi
1:53 AM76 °FPassing clouds.5 mph91%29.90 "Hg10 mi
12:53 AM76 °FPassing clouds.3 mph94%29.91 "Hg10 mi
11:53 PM
Fri, Nov 27
77 °FLight rain. Partly cloudy.5 mph90%29.93 "Hg10 mi
10:53 PM78 °FPassing clouds.3 mph87%29.93 "Hg10 mi
9:53 PM79 °FClear.5 mph84%29.94 "Hg10 mi
8:53 PM80 °FPassing clouds.8 mph81%29.93 "Hg10 mi
7:53 PM81 °FPassing clouds.5 mph77%29.91 "Hg10 mi
6:53 PM81 °FPassing clouds.6 mph79%29.90 "Hg10 mi
5:53 PM81 °FPassing clouds.6 mph79%29.88 "Hg10 mi
4:53 PM83 °FPassing clouds.7 mph74%29.87 "Hg10 mi
3:53 PM84 °FSunny.9 mph74%29.88 "Hg10 mi
2:53 PM85 °FPassing clouds.9 mph72%29.89 "Hg10 mi
1:53 PM85 °FPassing clouds.9 mph72%29.90 "Hg10 mi
Weather by CustomWeather, © 2015

See weather overviewHow to use our weather pages